Бурное

Казахстан     42˚37′01″N   70˚46′01″E
темп.,
°C
ветер,
м/с
пор.,
м/с
влажн.,
%
обл.,
%
осадки,
мм/ч
давл.,
гПа
погр.,
м
5 декабря, сб
сб523:00−12˚ю335722 0.1 103231
02:00−13˚ююз44480 0.0 103232
05:00−14˚ю44480 0.0 103333
08:00−13˚ю43460 0.0 103336
11:00−8˚зюз23680 0.0 1033154
14:00−8˚з12760 0.0 1031143
17:00−12˚ю22582 0.0 103326
20:00−12˚ю33450 0.0 103324
6 декабря, вс
вс623:00−12˚ю33380 0.0 103223
02:00−12˚ю32310 0.0 103222
05:00−12˚ю32290 0.0 103322
08:00−11˚ю33340 0.0 103323
11:00−5˚з22660 0.0 1032162
14:00−5˚зсз227742 0.1 1031193
17:00−7˚ююз118267 0.4 103129
20:00−7˚ю227698 0.2 103125
7 декабря, пн
пн723:00−8˚ю226388 0.2 102925
02:00−8˚ююз226333 0.0 102824
05:00−9˚ю226541 0.0 102822
08:00−9˚ююз226472 0.0 102922
11:00−5˚з238236 0.0 1029230
14:00−6˚з239124 0.0 1029225
17:00−11˚юз228351 0.0 103122
20:00−11˚ююз226223 0.0 103224
8 декабря, вт
вт823:00−12˚ююз336325 0.0 103325
02:00−12˚ююз236224 0.0 103423
05:00−13˚ююз226118 0.0 103422
08:00−13˚ююз225825 0.0 103623
11:00−8˚з117735 0.0 1036129
14:00−8˚ссв119140 0.0 1036141
17:00−11˚ююв227040 0.0 103821
20:00−11˚ююв23450 0.0 103921
9 декабря, ср
ср923:00−11˚ююв23320 0.0 103921
02:00−11˚ююв22270 0.0 103921
05:00−11˚ююв22250 0.0 103921
08:00−10˚ююв22210 0.0 103921
11:00−4˚вюв02610 0.0 1037124
14:00−4˚всв11710 0.0 1035111
17:00−9˚юв23500 0.0 103521
20:00−8˚ююв33340 0.0 103421